Regional Weather Roundup
Issued by NWS

Home | Current Version | Previous Version | Graphics & Text | Print | Product List | Glossary On
Versions: 1 2 3 4 5 6 7 8 9 10 11 12 13 14 15 16 17 18 19 20 21 22 23 24 25 26 27 28 29 30 31 32 33 34 35 36 37 38 39 40 41 42 43 44 45 46 47 48 49 50
000
ASUS43 KLOT 282110
RWRIL

ILLINOIS REGIONAL WEATHER ROUNDUP
NATIONAL WEATHER SERVICE CHICAGO/ROMEOVILLE IL
300 PM CST FRI NOV 28 2014

NOTE: "FAIR" INDICATES FEW OR NO CLOUDS BELOW 12,000 FEET WITH NO
SIGNIFICANT WEATHER AND/OR OBSTRUCTIONS TO VISIBILITY.

* THESE STATIONS ARE NOT UNDER NWS QUALITY CONTROL. THEY ALSO MAY NOT
  REPORT WEATHER SUCH AS PRECIPITATION OR FOG.

ILZ001-002-007-009-015-016-024-282200-
NORTHWEST ILLINOIS

CITY           SKY/WX    TMP DP  RH WIND       PRES   REMARKS
MOLINE         PTSUNNY   35  27  72 SE6       29.91F WCI  30
STERLING*      CLOUDY    34  27  75 S5        29.94F WCI  30
SAVANNA*       CLOUDY    32  26  78 SE7       29.94S WCI  26
$$

ILZ003-004-008-010-011-017-018-282200-
NORTH CENTRAL ILLINOIS

CITY           SKY/WX    TMP DP  RH WIND       PRES   REMARKS
ROCKFORD       CLOUDY    31  24  75 S9        29.97F WCI  23
FREEPORT*      CLOUDY    29  24  83 SE7       29.95F WCI  22
ROCHELLE*      CLOUDY    31  28  88 S12       29.96S WCI  22
DE KALB*       CLOUDY    29  26  86 SE13      29.97S WCI  19
PERU*          PTSUNNY   36  30  81 S12       29.96F WCI  27
$$

ILZ005-006-012>014-019>023-282200-
NORTHEAST ILLINOIS

CITY           SKY/WX    TMP DP  RH WIND       PRES   REMARKS
CHICAGO-OHARE  CLOUDY    30  22  72 S15       29.99F WCI  19
CHICAGO-MIDWAY CLOUDY    33  21  61 S16G24    30.00F WCI  23
AURORA         CLOUDY    32  25  75 SE14      29.99F WCI  22
LANSING*       CLOUDY    31  21  66 S13G25    30.03F WCI  21
JOLIET*        CLOUDY    32  26  78 SE10G16   30.00S WCI  23
WAUKEGAN       MOSUNNY   29  19  66 S10G18    29.99F WCI  20
DUPAGE AIRPORT CLOUDY    31  24  75 S12       29.98F WCI  22
KANKAKEE*      CLOUDY    33  27  77 SE13      30.01F WCI  24
WHEELING       PTSUNNY   30  21  69 S16       30.01F WCI  19
MORRIS*        CLOUDY    34  30  86 S13       29.98R WCI  25
ROMEOVILLE*    CLOUDY    31  25  77 S18G25    29.99F WCI  19
NORTHERLY ISL    N/A     31  21  66 SE10        N/A  WCI  22
$$

LMZ740>746-282200-
SOUTHERN LAKE MICHIGAN

STATION/POSITION SKY/WX   TEMP    WIND        PRES    VSBY  WAVE
                          AIR SEA DIR/SP/G                  HT/PER
                          (F)     (DEG/KT/KT) (MB)    (MI)  (FT/S)
SOUTHERN BUOY              32 42  150/ 21/ 27 1017.1F         5/ 5
WAUKEGAN HARBOR            31     180/ 17/ 20   N/A
HARRISON CRIB              31     170/ 24/ 28   N/A
BURNHAM HARBOR             31     170/ 11/ 18   N/A
CALUMET HARBOR             31     150/ 12/ 19 1015.2F
MICHIGAN CITY              30     140/ 15/ 18   N/A
$$

ILZ025>027-034>036-040-047-049-050-058-095>099-282200-
WEST-CENTRAL ILLINOIS

CITY           SKY/WX    TMP DP  RH WIND       PRES   REMARKS
QUINCY         MOSUNNY   48  33  56 S8        29.89F
GALESBURG*     PTSUNNY   36  31  81 SE5       29.91S WCI  32
MACOMB*        PTSUNNY   38  32  80 S14       29.92F WCI  29
JACKSONVILLE*  MOSUNNY   43  34  71 SE9       29.93F
PITTSFIELD*    MOSUNNY   48  37  67 E6        29.91F
$$

ILZ028>032-037-038-041>044-048-051>054-059>061-282200-
CENTRAL ILLINOIS

CITY           SKY/WX    TMP DP  RH WIND       PRES   REMARKS
PONTIAC        PTSUNNY   37  32  81 S16       29.98F WCI  28
BLOOMINGTON    MOSUNNY   36  31  82 S17       29.97F WCI  26
DECATUR        MOSUNNY   38  30  73 S18       30.01F WCI  28
PEORIA         MOSUNNY   38  29  70 S13G24    29.94F WCI  30
LACON*         MOSUNNY   36  29  75 S10       29.95S WCI  28
LINCOLN*       PTSUNNY   39  32  76 S16G22    29.99F WCI  30
SPRINGFIELD    MOSUNNY   39  31  72 S15       29.97F WCI  31
TAYLORVILLE    SUNNY     37  32  81 S21G28    29.99F WCI  27
$$

ILZ033-039-045-046-055>057-062-063-282200-
EAST-CENTRAL ILLINOIS

CITY           SKY/WX    TMP DP  RH WIND       PRES   REMARKS
CHAMPAIGN      MOSUNNY   37  30  75 S20       30.02F WCI  27
DANVILLE*      PTSUNNY   37  28  72 S13G23    30.03S WCI  28
RANTOUL*       PTSUNNY   39  32  75 S17       30.02F WCI  30
MATTOON        SUNNY     38  29  70 S17G26    30.03F WCI  28
PARIS*         MOSUNNY   37  31  77 S18       30.07S WCI  27
$$

ILZ079-100>102-282200-
SOUTHWEST ILLINOIS

CITY           SKY/WX    TMP DP  RH WIND       PRES   REMARKS
ALTON          SUNNY     46  32  57 S160      29.97F
BELLEVILLE     SUNNY     46  35  63 S12G24    29.99F
CAHOKIA*       SUNNY     50  34  54 S14G20    29.98F
SPARTA*        SUNNY     44  33  64 S17G24    30.03F
$$

ILZ064>066-069>071-074>076-080>082-084>086-088>090-092>094-282200-
SOUTH-CENTRAL ILLINOIS

CITY           SKY/WX    TMP DP  RH WIND       PRES   REMARKS
CARBONDALE     SUNNY     47  30  51 S20       30.07F
CAIRO*         SUNNY     51  29  44 S14G22    30.13F
EFFINGHAM*     SUNNY     40  29  65 S14G20    30.05F
MARION         MOSUNNY   46  32  57 S16G25    30.08F
MT. VERNON     SUNNY     45  32  61 S14       30.07F
CENTRALIA*     SUNNY     44  32  62 S16G23    30.04F
SALEM*           N/A     46  32  56 S16G23    30.04F
METROPOLIS*    SUNNY     48  30  48 S14G21      N/A
$$

ILZ067-068-072-073-078-083-087-091-282200-
SOUTHEAST ILLINOIS

CITY           SKY/WX    TMP DP  RH WIND       PRES   REMARKS
LAWRENCEVILLE  SUNNY     41  31  67 S22       30.11F
FLORA*         SUNNY     42  32  67 S18       30.07F
FAIRFIELD*     SUNNY     44  32  63 S13       30.08F
HARRISBURG*    SUNNY     46  29  50 S15G22    30.12F
ROBINSON*      SUNNY     40  30  67 S16       30.11F
CARMI*         SUNNY     46  35  65 S15       30.11F
$$

ABBREVIATIONS USED IN REMARKS
   TC - TEMPERATURE IN CELSIUS
  WCI - WIND CHILL INDEX
   HX - HEAT INDEX
  VSB - VISIBILITY
$$




USA.gov is the U.S. government's official web portal to all federal, state and local government web resources and services.